x

Yucatan Basin - 120 Nm Ese Of Cozumel, Mx (42056) Wave Buoy

3:50 - Thu 17th Apr 2014 All times are CDT. -5 hours from GMT.

  • Sig Wave height 3.9ft
  • Swell Direction
  • Peak Period 11s
  • Average Period 5s
  • Wind
    13mph, 16mph gusts
  • Sea Temp 81°f
  • Aire Temp 81°f
  • Sea Pressure 1013.2mb
  •  Yucatan Basin - 120 Nm Ese Of Cozumel, Mx
  •  Yucatan Basin - 120 Nm Ese Of Cozumel, Mx

More Historic Weather Station data

Upgrade to MSW Pro to gain access to the past 30 days of data for over 8000 Wavebouys and Weather Stations around the globe.

Join Pro

Comparision Forecast

View Surf forecast
   
jue 04/17 3:50 4ft 11s 5s 13 16 mph 1013.2mb 81f 81f
12:50 4.5ft 11s 6s 16 18 mph 1014.2mb 81f 80f
mié 04/16 11:50 4.5ft 11s 7s 13 18 mph 1014.8mb 82f 81f
10:50 4.5ft 11s 7s 13 16 mph 1014.7mb 82f 81f
9:50 4.5ft 11s 7s 11 13 mph 1014.5mb 82f 81f
8:50 4.5ft 11s 7s 13 16 mph 1014mb 82f 81f
7:50 4.5ft 11s 7s 7 9 mph 1013.7mb 82f 81f
6:50 3.5ft 11s 6s 7 9 mph 1013.2mb 82f 81f
5:50 3ft 11s 5s 9 11 mph 1012.7mb 82f 81f
4:50 2.5ft 5s 5s 9 11 mph 1012.1mb 82f 81f
3:50 3ft 5s 5s 9 11 mph 1012.4mb 82f 81f
2:50 3ft 5s 5s 11
mph
1012.5mb 82f 81f
1:50 2.5ft 5s 4s 11 13 mph 1013mb 82f 81f
12:50 3ft 5s 4s 11 13 mph 1014mb 82f 81f
11:50 2.5ft 5s 4s 16 18 mph 1014.4mb 82f 81f
10:50 3ft 5s 5s 13 16 mph 1014.8mb 82f 81f
9:50 3ft 5s 4s 13 16 mph 1014.8mb 81f 81f
8:50 3ft 6s 4s 13 16 mph 1013.9mb 81f 81f
7:50 3.5ft 5s 5s 13 16 mph 1013.6mb 81f 81f
6:50 3.5ft 6s 5s 13 16 mph 1013mb 81f 80f
5:50 3.5ft 6s 5s 11 13 mph 1012.6mb 81f 81f
4:50 3.5ft 5s 5s 11 13 mph 1012.3mb 81f 81f
3:50 3.5ft 6s 5s 13 18 mph 1012mb 81f 81f
2:50 3.5ft 6s 5s 13 16 mph 1012.5mb 81f 81f
1:50 3.5ft 6s 5s 16 18 mph 1012.4mb 81f 81f
12:50 4ft 6s 5s 16 18 mph 1012.6mb 82f 81f
mar 04/15 11:50 4ft 6s 5s 16 20 mph 1012.9mb 82f 81f
10:50 4ft 6s 5s 13 18 mph 1013mb 82f 81f
9:50 4ft 6s 5s 11 13 mph 1012.7mb 82f 82f
8:50 4ft 7s 5s 13 16 mph 1012.1mb 82f 82f
7:50 4.5ft 6s 5s 11 13 mph 1011.4mb 82f 82f
6:50 4.5ft 7s 5s 11 13 mph 1011mb 82f 82f
5:50 5ft 7s 5s 11 13 mph 1010.5mb 82f 82f
4:50 4.5ft 7s 5s 13 16 mph 1010.2mb 82f 82f
3:50 5ft 6s 5s 16 18 mph 1010.4mb 82f 82f
2:50 5ft 7s 5s 13 16 mph 1010.9mb 82f 82f
1:50 5ft 7s 5s 16 18 mph 1011.4mb 82f 82f
12:50 5.5ft 7s 5s 16 18 mph 1012mb 82f 82f
11:50 5ft 6s 5s 18 20 mph 1012.4mb 82f 82f
10:50 5ft 6s 5s 18 22 mph 1012.5mb 81f 82f
9:50 5ft 7s 5s 20 25 mph 1012.2mb 81f 82f
8:50 5ft 7s 5s 18 22 mph 1011.7mb 81f 81f
7:50 5ft 6s 5s 20 22 mph 1011mb 81f 81f
6:50 4.5ft 6s 5s 18 22 mph 1010.3mb 81f 81f
5:50 4.5ft 5s 5s 20 25 mph 1009.6mb 81f 81f
4:50 4.5ft 6s 5s 20 22 mph 1009.3mb 81f 81f
3:50 4.5ft 6s 5s 18 22 mph 1009.3mb 81f 81f
2:50 4.5ft 5s 5s 18 22 mph 1009.4mb 81f 81f
1:50 4ft 5s 5s 18 20 mph 1009.7mb 81f 81f
12:50 4ft 5s 5s 18 22 mph 1010.1mb 81f 81f
lun 04/14 11:50 4ft 5s 4s 18 20 mph 1010.8mb 81f 81f
10:50 3.5ft 5s 4s 18 22 mph 1011mb 81f 81f
9:50 3.5ft 5s 4s 18 22 mph 1010.8mb 81f 81f
8:50 3.5ft 9s 4s 16 20 mph 1010.7mb 82f 81f
7:50 3.5ft 5s 5s 16 18 mph 1010.3mb 82f 81f
6:50 3.5ft 6s 4s 16 18 mph 1009.9mb 82f 81f
5:50 3.5ft 6s 4s 16 18 mph 1009.6mb 82f 81f
4:50 3.5ft 5s 4s 16 18 mph 1009.8mb 82f 81f
3:50 3.5ft 5s 4s 16 18 mph 1009.9mb 82f 81f
2:50 3.5ft 8s 4s 16 18 mph 1010.4mb 82f 81f
1:50 3.5ft 9s 4s 16 18 mph 1011.3mb 82f 81f
12:50 3.5ft 5s 5s 16 18 mph 1012.1mb 82f 81f
11:50 3.5ft 5s 5s 16 18 mph 1012.8mb 82f 81f
10:50 3.5ft 5s 5s 13 18 mph 1013.1mb 82f 81f
9:50 3.5ft 5s 5s 13 16 mph 1013mb 82f 81f
8:50 3.5ft 5s 5s 16 18 mph 1012.7mb 82f 81f
7:50 3.5ft 6s 5s 13 18 mph 1012mb 81f 81f
6:50 3.5ft 7s 5s 13 16 mph 1011.5mb 81f 81f
5:50 3.5ft 5s 5s 13 16 mph 1011mb 82f 81f
4:50 3.5ft 6s 5s 13 16 mph 1010.7mb 82f 81f
3:50 3.5ft 6s 5s 13 16 mph 1010.8mb 82f 81f
2:50 3.5ft 6s 5s 13 18 mph 1011.2mb 82f 81f
1:50 3.5ft 6s 5s 13 18 mph 1011.6mb 82f 81f
12:50 3.5ft 6s 5s 16 18 mph 1012.1mb 82f 81f
dom 04/13 11:50 3.5ft 6s 5s 13 18 mph 1012.7mb 82f 81f
10:50 3.5ft 6s 5s 13 16 mph 1012.8mb 82f 81f
9:50 3.5ft 6s 5s 13 16 mph 1012.8mb 82f 81f
8:50 4ft 6s 5s 13 16 mph 1012.4mb 82f 81f
7:50 4ft 6s 5s 11 13 mph 1012.3mb 82f 81f
6:50 3.5ft 6s 5s 13 16 mph 1012.2mb 82f 81f
5:50 3.5ft 9s 5s 11 13 mph 1012mb 82f 82f
4:50 3.5ft 7s 5s 13 16 mph 1011.8mb 82f 81f
3:50 3.5ft 6s 5s 11 13 mph 1012.1mb 82f 82f
2:50 3ft 9s 5s 9 11 mph 1012.6mb 82f 81f
1:50 3.5ft 8s 5s 7 9 mph 1013.4mb 82f 80f
12:50 3.5ft 7s 5s 9 11 mph 1014.1mb 82f 80f
11:50 3.5ft 7s 5s 13 16 mph 1014.5mb 82f 80f
10:50 3.5ft 6s 5s 11 16 mph 1015mb 81f 78f